{"data":{"norad_id":60540,"epoch":"2026-09-22T15:34:02.698176Z","epoch_age_seconds":103403,"freshness":"FRESH","line1":"1 60540U 24149CA  26265.64864234  .00000348  00000+0  35466-4 0  9995","line2":"2 60540  97.6821 339.8599 0004835  99.2471 260.9298 14.96745426114569","mean_motion":14.96745426,"eccentricity":0.0004835,"inclination_deg":97.6821,"raan_deg":339.8599,"arg_perigee_deg":99.2471,"mean_anomaly_deg":260.9298,"bstar":3.5466e-5,"rev_number":11456,"period_min":96.208745654787,"perigee_km":573.59758832399,"apogee_km":580.32316748842,"semimajor_km":6955.0973779062,"source":"CELESTRAK","updated_at":"2026-09-23T09:00:20.671019Z"}}